Weather History for KCKN - July, 2013

Change the Weather History Date:

Tuesday, July 30, 2013

  Actual Average Record
Temperature  
Mean Temperature 56 °F -  
Max Temperature 75 °F 77 °F 132 °F (1997)
Min Temperature 37 °F 55 °F 37 °F (2013)
Degree Days  
Heating Degree Days 9    
Growing Degree Days 6 (Base 50)    
Moisture  
Dew Point 59 °F    
Average Humidity 82    
Maximum Humidity 100    
Minimum Humidity 61    
Precipitation  
Precipitation 0.00 in - - ()
Sea Level Pressure  
Sea Level Pressure 30.04 in    
Wind  
Wind Speed 7 mph (WSW)    
Max Wind Speed 12 mph    
Max Gust Speed -    
Visibility 10 miles    
Events Rain    
Averages and records for this station are not official NWS values.
T = Trace of Precipitation, MM = Missing Value Source: NWS Daily Summary

Daily Weather History Graph

Daily Weather History Graph

Search for Another Location

Airport or City:

Trip Planner

Search our weather history database for the weather conditions in past years. The results will help you decide how hot, cold, wet, or windy it might be!

Date:

Astronomy

Jul. 30, 2013 Rise Set
Actual Time 6:01 AM CDT 9:03 PM CDT
Civil Twilight 5:24 AM CDT 9:40 PM CDT
Nautical Twilight 4:37 AM CDT 10:27 PM CDT
Astronomical Twilight 3:38 AM CDT 11:25 PM CDT
Moon 12:23 AM CDT (7/30) 3:23 PM CDT (7/30)
Length of Visible Light 16h 15m
Length of Day
15h 02m
Last Quarter, 41% of the Moon is Illuminated
Jul 30
Last Quarter
Aug 6
New
Aug 14
First Quarter
Aug 20
Full
Aug 28
Last Quarter

Hourly Weather History & Observations

Time (CDT) Temp. Windchill Dew Point Humidity Pressure Visibility Wind Dir Wind Speed Gust Speed Precip Events Conditions
12:01 AM 62.6 °F - 60.8 °F 94% 30.04 in 10.0 mi South 6.9 mph - N/A   Overcast
12:21 AM 62.6 °F - 60.8 °F 94% 30.04 in 10.0 mi South 8.1 mph - N/A   Overcast
12:41 AM 62.6 °F - 60.8 °F 94% 30.04 in 10.0 mi South 8.1 mph - N/A   Overcast
1:01 AM 62.6 °F - 60.8 °F 94% 30.03 in 10.0 mi SSE 8.1 mph - N/A   Overcast
1:21 AM 60.8 °F - 60.8 °F 100% 30.03 in 10.0 mi SSE 9.2 mph - N/A   Overcast
1:41 AM 60.8 °F - 60.8 °F 100% 30.03 in 10.0 mi South 9.2 mph - N/A   Overcast
2:01 AM 62.6 °F - 59.0 °F 88% 30.03 in 10.0 mi South 10.4 mph - N/A   Overcast
2:21 AM 60.8 °F - 59.0 °F 94% 30.02 in 10.0 mi South 10.4 mph - N/A   Overcast
2:41 AM 60.8 °F - 57.2 °F 88% 30.02 in 10.0 mi South 9.2 mph - N/A   Overcast
3:01 AM 60.8 °F - 57.2 °F 88% 30.01 in 10.0 mi South 11.5 mph - N/A   Overcast
3:21 AM 60.8 °F - 57.2 °F 88% 30.02 in 10.0 mi South 10.4 mph - N/A   Overcast
3:41 AM 60.8 °F - 57.2 °F 88% 30.01 in 10.0 mi South 10.4 mph - N/A   Overcast
4:01 AM 60.8 °F - 57.2 °F 88% 30.01 in 10.0 mi South 9.2 mph - N/A   Mostly Cloudy
4:21 AM 60.8 °F - 57.2 °F 88% 30.01 in 10.0 mi South 8.1 mph - N/A   Scattered Clouds
4:41 AM 60.8 °F - 57.2 °F 88% 30.01 in 10.0 mi South 6.9 mph - N/A   Mostly Cloudy
5:01 AM 60.8 °F - 57.2 °F 88% 30.02 in 10.0 mi SSW 6.9 mph - N/A   Overcast
5:21 AM 60.8 °F - 57.2 °F 88% 30.02 in 10.0 mi SSW 6.9 mph - N/A   Mostly Cloudy
5:41 AM 60.8 °F - 57.2 °F 88% 30.02 in 10.0 mi SSW 5.8 mph - N/A   Overcast
6:01 AM 60.8 °F - 57.2 °F 88% 30.03 in 10.0 mi SSW 6.9 mph - N/A   Overcast
6:21 AM 60.8 °F - 57.2 °F 88% 30.03 in 10.0 mi SSW 8.1 mph - N/A   Mostly Cloudy
6:41 AM 59.0 °F - 57.2 °F 94% 30.03 in 10.0 mi SSW 5.8 mph - N/A   Scattered Clouds
7:01 AM 60.8 °F - 57.2 °F 88% 30.03 in 10.0 mi SSW 6.9 mph - N/A   Clear
7:21 AM 60.8 °F - 59.0 °F 94% 30.04 in 10.0 mi SW 4.6 mph - N/A   Clear
7:51 AM 60.8 °F - 60.8 °F 100% 30.06 in 10.0 mi SW 5.8 mph - N/A   Scattered Clouds
7:55 AM 60.8 °F - 60.8 °F 100% 30.05 in 10.0 mi WSW 4.6 mph - N/A   Scattered Clouds
8:14 AM 62.6 °F - 60.8 °F 94% 30.05 in 10.0 mi West 5.8 mph - N/A   Scattered Clouds
8:34 AM 62.6 °F - 60.8 °F 94% 30.04 in 10.0 mi NW 4.6 mph - N/A   Mostly Cloudy
8:55 AM 64.4 °F - 60.8 °F 88% 30.04 in 10.0 mi WNW 5.8 mph - N/A   Overcast
9:14 AM 64.4 °F - 60.8 °F 88% 30.04 in 10.0 mi Calm Calm - N/A   Mostly Cloudy
9:34 AM 64.4 °F - 60.8 °F 88% 30.04 in 10.0 mi Calm Calm - N/A   Mostly Cloudy
9:55 AM 64.4 °F - 60.8 °F 88% 30.04 in 10.0 mi Calm Calm - N/A   Mostly Cloudy
9:56 AM 64.4 °F - 60.8 °F 88% 30.04 in 10.0 mi Calm Calm - N/A   Mostly Cloudy
10:21 AM 66.2 °F - 60.8 °F 83% 30.06 in 10.0 mi West 2.3 mph - N/A   Overcast
10:49 AM 66.2 °F - 60.8 °F 83% 30.07 in 10.0 mi WNW 5.8 mph - N/A   Overcast
10:55 AM 66.2 °F - 60.8 °F 83% 30.07 in 10.0 mi West 6.9 mph - N/A   Overcast
11:14 AM 66.2 °F - 60.8 °F 83% 30.07 in 10.0 mi WSW 3.5 mph - N/A   Mostly Cloudy
11:34 AM 68.0 °F - 60.8 °F 78% 30.07 in 10.0 mi West 5.8 mph - N/A   Mostly Cloudy
11:50 AM 69.8 °F - 60.8 °F 73% 30.06 in 10.0 mi SW 5.8 mph - N/A   Mostly Cloudy
12:01 PM 69.8 °F - 60.8 °F 73% 30.06 in 10.0 mi SSW 4.6 mph - N/A   Mostly Cloudy
12:21 PM 69.8 °F - 60.8 °F 73% 30.06 in 10.0 mi West 2.3 mph - N/A   Scattered Clouds
12:41 PM 71.6 °F - 60.8 °F 69% 30.06 in 10.0 mi WSW 5.8 mph - N/A   Scattered Clouds
1:09 PM 71.6 °F - 60.8 °F 69% 30.07 in 10.0 mi West 9.2 mph - N/A   Mostly Cloudy
1:21 PM 73.4 °F - 60.8 °F 65% 30.07 in 10.0 mi WSW 8.1 mph - N/A   Mostly Cloudy
1:53 PM 73.4 °F - 60.8 °F 65% 30.06 in 10.0 mi West 8.1 mph - N/A   Clear
2:03 PM 73.4 °F - 60.8 °F 65% 30.06 in 10.0 mi West 6.9 mph - N/A   Clear
2:21 PM 73.4 °F - 60.8 °F 65% 30.06 in 10.0 mi WNW 6.9 mph - N/A   Scattered Clouds
2:43 PM 37.4 °F 30.8 °F 33.8 °F 87% 29.87 in 10.0 mi SW 9.2 mph - N/A Rain Light Rain
2:44 PM 37.4 °F 30.8 °F 33.8 °F 87% 29.87 in 10.0 mi SW 9.2 mph - N/A Rain Light Rain
3:01 PM 75.2 °F - 60.8 °F 61% 30.05 in 10.0 mi West 6.9 mph - N/A   Scattered Clouds
3:21 PM 75.2 °F - 60.8 °F 61% 30.04 in 10.0 mi West 6.9 mph - N/A   Scattered Clouds
3:41 PM 75.2 °F - 60.8 °F 61% 30.05 in 10.0 mi WNW 5.8 mph - N/A   Scattered Clouds
4:01 PM 73.4 °F - 60.8 °F 65% 30.04 in 10.0 mi WNW 8.1 mph - N/A   Scattered Clouds
4:23 PM 73.4 °F - 60.8 °F 65% 30.05 in 10.0 mi WNW 10.4 mph - N/A   Scattered Clouds
4:41 PM 71.6 °F - 60.8 °F 69% 30.05 in 10.0 mi WNW 8.1 mph - N/A   Scattered Clouds
5:01 PM 71.6 °F - 59.0 °F 64% 30.04 in 10.0 mi WNW 6.9 mph - N/A   Clear
5:21 PM 71.6 °F - 60.8 °F 69% 30.04 in 10.0 mi NW 8.1 mph - N/A   Clear
5:41 PM 71.6 °F - 60.8 °F 69% 30.04 in 10.0 mi NW 8.1 mph - N/A   Clear
6:01 PM 71.6 °F - 60.8 °F 69% 30.04 in 10.0 mi Calm Calm - N/A   Scattered Clouds
6:34 PM 71.6 °F - 59.0 °F 64% 30.04 in 10.0 mi WNW 8.1 mph - N/A   Scattered Clouds
6:41 PM 69.8 °F - 59.0 °F 68% 30.04 in 10.0 mi WNW 6.9 mph - N/A   Scattered Clouds
7:01 PM 69.8 °F - 60.8 °F 73% 30.03 in 10.0 mi West 2.3 mph - N/A   Mostly Cloudy
7:21 PM 71.6 °F - 60.8 °F 69% 30.04 in 10.0 mi WNW 3.5 mph - N/A   Scattered Clouds
7:41 PM 71.6 °F - 60.8 °F 69% 30.04 in 10.0 mi West 5.8 mph - N/A   Clear
8:01 PM 69.8 °F - 60.8 °F 73% 30.04 in 10.0 mi West 5.8 mph - N/A   Clear
8:21 PM 66.2 °F - 60.8 °F 83% 30.04 in 10.0 mi West 3.5 mph - N/A   Clear
8:49 PM 66.2 °F - 60.8 °F 83% 30.03 in 10.0 mi WSW 4.6 mph - N/A   Clear
9:04 PM 64.4 °F - 59.0 °F 83% 30.04 in 10.0 mi SW 4.6 mph - N/A   Clear
9:21 PM 62.6 °F - 59.0 °F 88% 30.04 in 10.0 mi SW 5.8 mph - N/A   Clear
9:41 PM 60.8 °F - 57.2 °F 88% 30.04 in 10.0 mi SW 6.9 mph - N/A   Clear
10:05 PM 60.8 °F - 57.2 °F 88% 30.05 in 10.0 mi SW 6.9 mph - N/A   Clear
10:23 PM 60.8 °F - 57.2 °F 88% 30.05 in 10.0 mi SW 6.9 mph - N/A   Clear
10:41 PM 59.0 °F - 55.4 °F 88% 30.05 in 10.0 mi WSW 5.8 mph - N/A   Clear
11:01 PM 59.0 °F - 55.4 °F 88% 30.06 in 10.0 mi SW 4.6 mph - N/A   Clear
11:21 PM 59.0 °F - 55.4 °F 88% 30.05 in 10.0 mi SW 5.8 mph - N/A   Clear
11:41 PM 57.2 °F - 55.4 °F 94% 30.05 in 10.0 mi SW 5.8 mph - N/A   Clear